Regional Weather Roundup
Issued by NWS Newport/Morehead, NC

Current Version | Previous Version | Text Only | Print | Product List | Glossary Off
Versions: 1 2 3 4 5 6 7 8 9 10 11 12 13 14 15 16 17 18 19 20 21 22 23 24 25 26 27 28 29 30 31 32 33 34 35 36 37 38 39 40 41 42 43 44 45 46 47 48 49 50

000
ASUS42 KMHX 020512
RWRMHX
WEATHER ROUNDUP FOR EASTERN NORTH CAROLINA
NATIONAL WEATHER SERVICE NEWPORT/MOREHEAD CITY NC
100 AM EDT THU APR 02 2015

NOTE: "FAIR" INDICATES FEW OR NO CLOUDS BELOW 12,000 FEET
WITH NO SIGNIFICANT WEATHER AND/OR OBSTRUCTIONS TO VISIBILITY

NCZ015>017-031-032-045>047-102-103-020600-
NORTH COAST

CITY           SKY/WX    TMP DP  RH WIND       PRES   REMARKS
EDENTON        PTCLDY    42  34  73 S3        30.31S
ELIZABETH CITY PTCLDY    40  33  76 S5        30.31S
KITTY HAWK     CLEAR     41  30  66 S3        30.30S
MANTEO         CLEAR     36  32  85 CALM      30.31S

$$

NCZ045>047-081-094-103-104-020600-
CENTRAL COAST

CITY           SKY/WX    TMP DP  RH WIND       PRES   REMARKS
FRISCO         CLEAR     37  29  72 E3        30.31F
SWANQUARTER      N/A     39 N/A N/A E3        30.27S

$$

NCZ095-097-098-100-101-020600-
SOUTHERN COAST

CITY           SKY/WX    TMP DP  RH WIND       PRES   REMARKS
BEAUFORT       CLEAR     48  37  65 E5        30.31S
CEDAR ISLAND     N/A     50 N/A N/A NE9       30.33F
JACKSONVILLE   CLEAR     49  31  49 E9        30.30S
PINEY ISLAND   CLEAR    N/A N/A N/A E9        30.31S
WILMINGTON     CLEAR     53  41  63 E8        30.29S


$$

NCZ011>013-027>030-043-044-078>080-089-090>093-098-020600-
COASTAL PLAIN

CITY           SKY/WX    TMP DP  RH WIND       PRES   REMARKS
AHOSKIE        CLEAR     39  33  77 S3        30.31F
CLINTON        CLEAR     46  42  84 CALM      30.29S
ELIZABETHTOWN  CLEAR     49  42  78 CALM      30.28S
GOLDSBORO      CLEAR     46  45  97 SE5       30.27S
GREENVILLE     CLEAR     45  37  76 SE6       30.31S
HAVELOCK       CLEAR     45  33  63 E7        30.32S
KENANSVILLE    CLEAR     45  37  76 CALM      30.30S
KINSTON        CLEAR     46  38  75 SE6       30.31S
NEW BERN       CLEAR     48  37  65 SE5       30.32R
RICHLANDS      CLEAR     45  34  65 E5        30.31S
ROCKY MOUNT    CLEAR     47  37  68 VRB3      30.29S
WASHINGTON     CLEAR     43  35  73 CALM      30.32S
WHITEVILLE     CLEAR     52  44  73 E5        30.28R

$$

AMZ130-135-150-152-154-156-158-170-250-252-270-ANZ085-086-088-633-658-670-020600-
MARINE OBSERVATIONS

STATION/POSITION TIME  TEMP    WIND        PRES    WAVE   SWELL
                       AIR SEA DIR/SP/G            HT/PER HT/PER
                 (UTC) (F)     (DEG/KT/KT) (MB)    (FT/S) (FT/S)
CHESAPEAKE LIGHT 0400   42     190/ 13/ 14 1026.3
64 E VA BEACH    0450   49 53  140/  4/  6 1025.6    3/ 6   3/ 6
DUCK             0400   43 43  160/  7/  8 1025.3
2 E DUCK         0411      43                N/A     3/ 6
10 NE DUCK       NOT AVBL
OREGON INLET     0400   42 47  150/  2/  3 1026.4
HATTERAS CG      0400   46 58   70/  5/  6 1027.0
CAPE LOOKOUT     0500   55      60/ 16/ 18 1025.9
BEAUFORT LAB     0400   50 55   70/  6/  7 1025.4
27 SE WRIGHTSVLE 0400   56 64   90/ 21/ 23 1026.7
5 SE WRIGHTSVLE  0400   57 56   90/ 16/ 19 1025.2
225 S CAPE HAT   0450   64 69   50/ 17/ 21 1023.8    7/ 8   3/ 8
41 SE CHARLESTON 0450   65 68   80/ 19/ 21 1023.3    6/ 7   2/11

$$


USA.gov is the U.S. government's official web portal to all federal, state and local government web resources and services.